This is the latest recevied weather packets stored in our database for station/object K6POO-1. If no packets are shown the sender has not sent any weather packets the latest 10 day(s).
| Time | Temp. | Humidity | Pressure | Rain* | Wind** | Luminosity | Snow |
|---|---|---|---|---|---|---|---|
| 1777867218 | 13.33° C | 83% | 1014.3 hPa | 0 mm | - | 0 W/m² | - |
| 1777866915 | 13.33° C | 82% | 1014.1 hPa | 0 mm | - | 0 W/m² | - |
| 1777866611 | 13.33° C | 82% | 1013.9 hPa | 0 mm | - | 0 W/m² | - |
| 1777866309 | 13.33° C | 81% | 1013.8 hPa | 0 mm | - | 0 W/m² | - |
| 1777866006 | 13.33° C | 80% | 1013.7 hPa | 0 mm | - | 0 W/m² | - |
| 1777865703 | 13.33° C | 80% | 1013.6 hPa | 0 mm | - | 0 W/m² | - |
| 1777865400 | 13.33° C | 79% | 1013.7 hPa | 0 mm | - | 0 W/m² | - |
| 1777865097 | 13.33° C | 79% | 1013.6 hPa | 0 mm | - | 0 W/m² | - |
| 1777864794 | 13.33° C | 78% | 1013.6 hPa | 0 mm | - | 0 W/m² | - |
| 1777864491 | 13.33° C | 78% | 1013.5 hPa | 0 mm | - | 0 W/m² | - |
| 1777864187 | 13.33° C | 78% | 1013.5 hPa | 0 mm | - | 1 W/m² | - |
| 1777863885 | 13.33° C | 78% | 1013.5 hPa | 0 mm | - | 2 W/m² | - |
| 1777863580 | 13.33° C | 77% | 1013.5 hPa | 0 mm | - | 4 W/m² | - |
| 1777863277 | 13.33° C | 77% | 1013.4 hPa | 0 mm | - | 6 W/m² | - |
| 1777862975 | 13.33° C | 77% | 1013.5 hPa | 0 mm | - | 9 W/m² | - |
| 1777862672 | 13.89° C | 76% | 1013.2 hPa | 0 mm | - | 14 W/m² | - |
| 1777862369 | 13.89° C | 77% | 1013.3 hPa | 0 mm | - | 17 W/m² | - |
| 1777862065 | 13.89° C | 77% | 1013.4 hPa | 0 mm | - | 22 W/m² | - |
| 1777861760 | 13.89° C | 77% | 1013.5 hPa | 0 mm | - | 28 W/m² | - |
| 1777861457 | 13.89° C | 76% | 1013.3 hPa | 0 mm | - | 34 W/m² | - |
| 1777861154 | 13.89° C | 76% | 1013.3 hPa | 0 mm | - | 41 W/m² | - |
| 1777860851 | 13.89° C | 75% | 1013.4 hPa | 0 mm | - | 37 W/m² | - |
| 1777860549 | 13.89° C | 75% | 1013.2 hPa | 0 mm | - | 36 W/m² | - |
| 1777860245 | 13.89° C | 77% | 1013.2 hPa | 0 mm | - | 44 W/m² | - |
| 1777859941 | 13.89° C | 77% | 1013.3 hPa | 0 mm | - | 64 W/m² | - |
* Rain latest hour (hover to see other rain measurements)
** Current wind speed in m/s (hover to see current wind gust speed)